Regional Weather Roundup
Issued by NWS

Home | Current Version | Previous Version | Text Only | Print | Product List | Glossary On
Versions: 1 2 3 4 5 6 7 8 9 10 11 12 13 14 15 16 17 18 19 20 21 22 23 24 25 26 27 28 29 30 31 32 33 34 35 36 37 38 39 40 41 42 43 44 45 46 47 48 49 50
000
ASUS43 KDTX 220610
RWRMI
MICHIGAN HOURLY REGIONAL WEATHER ROUNDUP
NATIONAL WEATHER SERVICE DETROIT/PONTIAC MI
100 AM EST WED NOV 22 2017

NOTE: "FAIR" INDICATES FEW OR NO CLOUDS BELOW 12,000 FEET WITH NO
SIGNIFICANT WEATHER AND/OR OBSTRUCTION TO VISIBILITY.

MIZ047>049-052>055-059>063-066>070-074>076-081>083-220700-
SOUTHEAST LOWER MICHIGAN

CITY           SKY/WX    TMP DP  RH WIND       PRES   REMARKS
ADRIAN         CLOUDY    33  24  69 NW8       30.08R WCI  26
6HR MIN TEMP:  33; 6HR MAX TEMP:  37; 6HR PCP: TRACE;

ALMA           CLOUDY    31  19  61 NW10G17   30.11R WCI  22
ANN ARBOR      CLOUDY    33  22  63 NW10      30.06R WCI  25
BAD AXE        CLOUDY    30  17  59 NW17G23   30.05R WCI  18
6HR MIN TEMP:  30; 6HR MAX TEMP:  38;

CARO           CLOUDY    31  22  67 NW13G21   30.07R WCI  22
DETROIT CITY   CLOUDY    35  23  61 N8        30.05R WCI  29
6HR MIN TEMP:  35; 6HR MAX TEMP:  40; 6HR PCP:  0.03;

DETROIT        CLOUDY    34  23  64 NW12G20   30.06R WCI  25
6HR MIN TEMP:  34; 6HR MAX TEMP:  40; 6HR PCP:  0.02;

FLINT          CLOUDY    32  20  61 NW14      30.08R WCI  22
6HR MIN TEMP:  32; 6HR MAX TEMP:  38;

GROSSE ILE     CLOUDY    35  23  62 NW13G18   30.05R WCI  26
6HR MIN TEMP:  35; 6HR MAX TEMP:  40; 6HR PCP:  0.02;

HILLSDALE      CLOUDY    32  23  69 NW8       30.06R WCI  25
HOWELL         CLOUDY    31  21  65 N9G18     30.07R WCI  23
6HR MIN TEMP:  31; 6HR MAX TEMP:  37;


CITY           SKY/WX    TMP DP  RH WIND       PRES   REMARKS
JACKSON        CLOUDY    33  22  63 NW7       30.07R WCI  27
6HR MIN TEMP:  33; 6HR MAX TEMP:  37;

LAMBERTVILLE   CLOUDY    37  29  73 NW6       30.07R WCI  32
6HR MIN TEMP:  37; 6HR MAX TEMP:  41;

LANSING        CLOUDY    31  20  63 N13       30.10R WCI  21
6HR MIN TEMP:  31; 6HR MAX TEMP:  36;

LAPEER         CLOUDY    32  22  69 N7        30.06R WCI  25
6HR MIN TEMP:  32; 6HR MAX TEMP:  39;

MASON          CLOUDY    33  22  65 NW9G17    30.09R WCI  25
MONROE         CLOUDY    36  25  64 NW9G16    30.06R WCI  29
6HR MIN TEMP:  36; 6HR MAX TEMP:  40; 6HR PCP:  0.01;

MT. CLEMENS    CLOUDY    34  25  69 NW12      30.03R WCI  25
6HR MIN TEMP:  34; 6HR MAX TEMP:  39; 6HR PCP:  0.02;

PONTIAC        CLOUDY    32  22  66 NW15G22   30.04R WCI  22
6HR MIN TEMP:  32; 6HR MAX TEMP:  38;

PORT HOPE        N/A     32  22  66 NW15G23   30.02R WCI  22
6HR MIN TEMP:  32; 6HR MAX TEMP:  38;

PORT HURON     CLOUDY    32  21  64 NW12G18   30.04R WCI  23
TRI CITIES     CLOUDY    31  20  63 NW13      30.09R WCI  21
6HR MIN TEMP:  31; 6HR MAX TEMP:  38;

MIDLAND        MOCLDY    31  20  64 W9        30.09R WCI  23
6HR MIN TEMP:  31; 6HR MAX TEMP:  36;

TROY           CLOUDY    36  23  61 NW9G16    30.07R WCI  29
SAGINAW HB     CLOUDY    32  21  64 NW13      30.08R WCI  22
$$
MIZ043>046-050>051-056>058-064>065-071>073-077>080-220700-
SOUTHWEST LOWER MICHIGAN

CITY           SKY/WX    TMP DP  RH WIND       PRES   REMARKS
BATTLE CREEK   CLOUDY    32  20  61 NW15      30.11R WCI  22
6HR MIN TEMP:  32; 6HR MAX TEMP:  35;

BENTON HARBOR  CLOUDY    35  22  58 NW6       30.15R WCI  30
6HR MIN TEMP:  35; 6HR MAX TEMP:  37;

BIG RAPIDS     CLOUDY    28  16  62 NW10G17   30.11R WCI  18
6HR MIN TEMP:  28; 6HR MAX TEMP:  32;

COLDWATER      CLOUDY    32  22  65 NW9       30.10R WCI  24
6HR MIN TEMP:  32; 6HR MAX TEMP:  36;

FREMONT        CLOUDY    29  19  67 N13       30.14R WCI  18
6HR MIN TEMP:  29; 6HR MAX TEMP:  33;

HOLLAND        CLOUDY    33  21  61 N9        30.14R WCI  25
6HR MIN TEMP:  33; 6HR MAX TEMP:  36;

GRAND RAPIDS   CLOUDY    32  21  64 NW12      30.12R WCI  23
6HR MIN TEMP:  32; 6HR MAX TEMP:  36; 6HR PCP: TRACE;

IONIA          CLOUDY    31  20  63 NW10      30.10R WCI  23
6HR MIN TEMP:  31; 6HR MAX TEMP:  37;

KALAMAZOO      CLOUDY    32  19  58 N10       30.12R WCI  24
6HR MIN TEMP:  32; 6HR MAX TEMP:  36;

LUDINGTON      CLOUDY    29  18  64 NW8       30.15R WCI  21
6HR MIN TEMP:  28; 6HR MAX TEMP:  32;

MARSHALL       CLOUDY    32  20  62 NW6       30.09R WCI  26
6HR MIN TEMP:  32; 6HR MAX TEMP:  35;

MOUNT PLEASANT CLOUDY    30  19  63 NW9       30.10R WCI  22
6HR MIN TEMP:  30; 6HR MAX TEMP:  35;

MUSKEGON       CLOUDY    31  19  61 N10       30.15R WCI  22
6HR MIN TEMP:  31; 6HR MAX TEMP:  35; 6HR PCP: TRACE;

SOUTH HAVEN    CLOUDY    35  23  61 NW14G20   30.14R WCI  26
$$
MIZ016>042-220700-
NORTHERN LOWER MICHIGAN

CITY           SKY/WX    TMP DP  RH WIND       PRES   REMARKS
ALPENA         CLOUDY    29  17  61 NW10G23   30.04R WCI  20
6HR MIN TEMP:  29; 6HR MAX TEMP:  30;

BEAVER ISLAND  CLOUDY    28  20  72 NW10G22   30.10R WCI  18
6HR MIN TEMP:  28; 6HR MAX TEMP:  29;

BELLAIRE       LGT SNOW  28  25  90 NW3       30.10R
6HR MIN TEMP:  27; 6HR MAX TEMP:  31;

CADILLAC       CLOUDY    25  16  70 W9        30.07R WCI  15
CHARLEVOIX     FLURRIES  30  19  64 NW14      30.12R WCI  19
6HR MIN TEMP:  29; 6HR MAX TEMP:  31;

FRANKFORT      CLOUDY    30  18  61 NW12G17   30.14R WCI  21
GAYLORD        CLOUDY    24  18  77 CALM      30.03R
6HR MIN TEMP:  24; 6HR MAX TEMP:  27; 6HR PCP:  0.01;

GRAYLING       CLOUDY    25  19  78 W8        30.06R WCI  17
6HR MIN TEMP:  25; 6HR MAX TEMP:  29;

HARBOR SPRINGS FLURRIES  28  18  65 NW7       30.07R WCI  21
HOUGHTON LAKE  LGT SNOW  25  20  81 NW12      30.07R WCI  14
6HR MIN TEMP:  25; 6HR MAX TEMP:  30; 6HR PCP: TRACE;

MANISTEE       FLURRIES  29  19  66 NW10      30.14R WCI  20
OSCODA         CLEAR     27  13  56 NW10      30.05R WCI  17
6HR MIN TEMP:  26; 6HR MAX TEMP:  35;

PELLSTON       CLOUDY    27  18  69 NW12      30.07R WCI  17
6HR MIN TEMP:  25; 6HR MAX TEMP:  29; 6HR PCP:  0.01;

ROGERS CITY    CLOUDY    29  17  62 NW16      30.05R WCI  17
TRAVERSE CITY  FLURRIES  30  18  60 NW9       30.11R WCI  22
6HR MIN TEMP:  29; 6HR MAX TEMP:  32; 6HR PCP: TRACE;

$$
MIZ007>008-015-220700-
EASTERN UPPER MICHIGAN

CITY           SKY/WX    TMP DP  RH WIND       PRES   REMARKS
KINROSS        LGT SNOW  20  15  81 NE6       30.07R WCI  12
6HR MIN TEMP:  20; 6HR MAX TEMP:  27;

MACKINAC ISLAN CLOUDY    27  20  75 W12       30.05R WCI  16
6HR MIN TEMP:  27; 6HR MAX TEMP:  29;

NEWBERRY       FLURRIES  22  21  96 W6        30.07R WCI  14
6HR MIN TEMP:  21; 6HR MAX TEMP:  25;

S. S. MARIE    CLOUDY    21  13  71 NE7       30.06R WCI  12
6HR MIN TEMP:  21; 6HR MAX TEMP:  28; 6HR PCP:  0.01;

MUNISING         N/A     28  25  88 NW15G22   30.12R WCI  16
6HR MIN TEMP:  27; 6HR MAX TEMP:  30; 6HR PCP:  0.04;

$$
MIZ004>006-011>014-085-220700-
CENTRAL UPPER MICHIGAN

CITY           SKY/WX    TMP DP  RH WIND       PRES   REMARKS
MANISTIQUE     LGT SNOW  23  18  81 W8        30.12R WCI  14
6HR MIN TEMP:  22; 6HR MAX TEMP:  25;

ESCANABA       FLURRIES  23  17  78 NW9       30.17R WCI  13
6HR MIN TEMP:  22; 6HR MAX TEMP:  25; 6HR PCP: TRACE;

MENOMINEE      CLOUDY    24  14  65 NW6       30.20R WCI  17
6HR MIN TEMP:  24; 6HR MAX TEMP:  26; 6HR PCP: TRACE;

SAWYER-GWINN   CLOUDY    21  15  77 NW9       30.12R WCI  11
6HR MIN TEMP:  21; 6HR MAX TEMP:  22;

$$
MIZ001>003-009>011-084-220700-
WESTERN UPPER MICHIGAN

CITY           SKY/WX    TMP DP  RH WIND       PRES   REMARKS
IRON MOUNTAIN  CLOUDY    22  14  71 NW8       30.14R WCI  12
6HR MIN TEMP:  22; 6HR MAX TEMP:  23; 6HR PCP: TRACE;

HOUGHTON       CLOUDY    23  12  62 NW15      30.12R WCI  10
6HR MIN TEMP:  21; 6HR MAX TEMP:  23; 6HR PCP: TRACE;

COPPER HARBOR    N/A     28  19  69 N18G25    30.12R WCI  15
6HR MIN TEMP:  26; 6HR MAX TEMP:  28;

IRONWOOD       FLURRIES  20  15  81 W9        30.20R WCI   9
6HR MIN TEMP:  19; 6HR MAX TEMP:  21; 6HR PCP: TRACE;

$$

ABBREVIATIONS USED IN REMARKS
   TC - TEMPERATURE IN CELSIUS
  WCI - WIND CHILL INDEX
   HX - HEAT INDEX
  VSB - VISIBILITY





USA.gov is the U.S. government's official web portal to all federal, state and local government web resources and services.